SCP
0 0 -0 -0 -0 -0 -0 -0 -0 -0 -0 -0 -0 -0 -0 -0 -0 -0 -0 0 -0 -0 -0 -0 -0 -0 0 0 0 0 -0 -0 -0 -0 0 0 0 0 0 0 0 0 0 0 0 0 0
0 0 0 0 0 -0 -0 -0 -0 -0 -0 -0 -0 -0 -0 -0 0 0 0 0 0 0 0 0 0 0 0 -0 0 0 -0 0 0 0 0 0 0 0 0 0 0 0 0 0 0 0 0
0 0 0 0 0 0 0 0 0 0 0 -0 -0 -0 -0 -0 0 0 0 0 0 0 0 0 0 0 0 -0 0 0 0 0 0 0 0 0 0 0 0 0 0 0 0 0 0 0 0
0 0 0 0 0 0 0 0 0 0 0 0 0 -0 -0 -0 -0 0 0 0 0 0 0 0 0 0 0 0 0 0 0 0 0 0 0 0 0 0 0 0 0 0 0 0 0 0 0
0 0 0 0 0 0 0 0 0 0 0 0 0 0 0 0 0 0 0 0 0 0 0 0 0 0 0 0 0 0 0 0 0 0 0 0 0 0 0 0 0 0 0 0 0 0 0
0 0 0 0 0 0 0 0 0 0 0 0 0 0 0 0 0 0 0 0 0 0 0 0 0 0 0 0 0 0 0 0 0 0 0 0 0 0 0 0 0 0 0 0 0 0 0
0 0 0 0 0 0 0 0 0 0 0 0 0 0 0 0 0 0 0 0 0 0 0 0 0 0 0 0 0 0 0 0 0 0 0 0 0 0 0 0 0 0 0 0 0 0 0
0 0 0 0 0 0 0 0 0 0 0 0 0 0 0 0 0 0 0 0 0 0 0 0 0 0 0 0 0 0 0 0 0 0 0 0 0 0 0 0 0 0 0 0 0 0 0
0 0 0 0 0 0 0 0 0 0 0 0 0 0 0 0 0 0 0 0 0 0 0 0 0 0 0 0 0 0 0 0 0 0 0 0 0 0 0 0 0 0 0 0 0 0 0
0 0 0 0 0 0 0 0 0 0 0 0 0 0 0 0 0 0 0 0 0 0 0 0 0 0 0 0 0 0 0 0 0 0 0 0 0 0 0 0 0 0 0 0 0 0 0
0 0 0 0 0 0 0 0 0 0 0 0 0 0 0 0 0 0 0 0 0 0 0 0 0 0 0 0 0 0 0 0 0 0 0 0 0 0 0 0 0 0 0 0 0 0 0
0 0 0 0 0 0 0 0 0 0 0 0 0 0 0 0 0 0 0 0 0 0 0 0 0 0 0 0 0 0 0 0 0 0 0 0 0 0 0 0 0 0 0 0 0 0 0
0 0 0 0 0 0 0 0 0 0 0 0 0 0 0 0 0 0 0 0 0 0 0 0 0 0 0 0 0 0 0 0 0 0 0 0 0 0 0 0 0 0 0 0 0 0 0
0 0 0 0 0 0 0 0 0 0 0 0 0 0 0 0 0 0 0 0 0 0 0 0 0 0 0 0 0 0 0 0 0 0 0 0 0 0 0 0 0 0 0 0 0 0 0
0 -0 0 0 0 0 0 0 0 0 0 0 0 0 0 0 0 0 0 0 0 0 0 0 0 0 0 0 0 0 0 0 0 0 0 0 0 0 0 0 0 0 0 0 0 0 0
0 0 0 0 0 0 0 0 0 0 0 0 0 0 0 0 0 0 0 0 0 0 0 0 0 0 0 0 0 0 0 0 0 0 0 0 0 0 0 0 0 0 0 0 0 0 0
0 0 0 0 0 0 0 0 0 0 0 0 0 0 0 0 0 0 0 0 0 0 0 0 0 0 0 0 0 0 0 0 0 0 0 0 0 0 0 0 0 0 0 0 0 0 0
0 0 0 0 0 0 0 0 0 0 0 0 0 0 0 0 0 0 0 0 0 0 0 0 0 0 0 0 0 0 0 0 0 0 0 0 0 0 0 0 0 0 0 0 0 0 0
0 0 0 0 0 0 0 0 0 0 0 0 -0 0 0 0 0 0 0 0 0 0 0 0 0 0 0 0 0 0 0 0 0 0 0 0 0 0 0 0 0 0 0 0 0 0 0
0 0 -0 -0 0 0 0 0 0 0 0 -0 0 0 0 0 0 0 0 0 0 0 0 0 0 0 0 0 0 0 0 0 0 0 0 0 0 0 0 0 0 0 0 0 0 0 0
0 0 0 0 -0 -0 0 0 0 0 0 -0 0 0 0 0 0 0 0 0 0 0 0 0 0 0 0 0 0 0 0 0 0 0 0 0 0 0 0 0 0 0 0 0 0 0 0
-0 -0 0 0 0 -0 -0 0 0 0 0 -0 0 0 0 0 0 0 0 0 0 0 0 0 0 0 0 0 0 0 0 0 0 0 0 0 0 0 0 0 0 0 0 0 0 0 0
0 0 0 0 0 0 0 0 0 0 0 -0 -0 -0 -0 -0 0 0 0 0 0 0 0 0 0 0 0 0 0 0 0 0 0 0 0 0 0 0 0 0 0 0 0 0 0 0 0
0 0 0 0 0 0 0 0 0 0 0 0 0 -0 -0 -0 0 0 0 0 0 0 0 0 0 0 0 0 0 0 0 0 0 0 0 0 0 0 0 0 0 0 0 0 0 0 0
0 0 0 0 0 0 0 0 0 0 0 0 0 -0 -0 -0 -0 0 0 0 0 0 0 0 0 0 0 0 0 0 0 0 0 0 0 0 0 0 0 0 0 0 0 0 0 0 0
0 0 0 0 0 0 -0 -0 0 -0 -0 0 0 0 -0 0 -0 0 -0 -0 0 0 0 0 0 0 0 0 0 0 0 0 0 0 0 0 0 0 0 0 0 0 0 0 0 0 0
0 0 0 0 0 0 0 0 0 0 0 0 0 0 0 0 -0 0 0 0 -0 0 0 0 0 0 0 0 0 0 0 0 0 0 0 0 0 0 0 0 0 0 0 0 0 0 0
0 0 0 0 0 0 0 0 0 0 -0 0 0 0 0 0 0 0 0 0 0 0 0 0 0 0 0 0 0 0 0 0 0 0 0 0 0 0 0 0 0 0 0 0 0 0 0
0 0 0 0 0 0 0 0 0 0 -0 -0 0 0 0 0 0 0 0 0 0 -0 0 -0 0 0 0 0 0 0 0 0 0 0 0 0 0 0 0 0 0 0 0 0 0 0 0
Wind_Speed_500mb
32 31 32 33 34 34 34 34 33 34 34 34 28 19 14 10 11 12 12 10 9 9 6 7 10 12 11 11 15 11 10 10 12 16 16 16 12 8 9 7 5 6 9 6 9 12 10
34 35 35 34 35 35 36 36 35 33 33 34 33 27 18 13 13 13 13 12 10 9 7 8 8 10 12 9 11 10 10 8 10 16 19 18 10 11 15 6 4 7 9 9 9 10 10
33 34 34 35 35 37 37 37 37 38 36 33 34 34 25 13 13 13 13 15 15 11 10 7 10 8 16 20 12 9 10 7 8 15 17 18 14 11 16 9 13 19 7 3 6 7 5
31 32 35 36 35 34 36 38 40 38 38 37 33 33 33 19 14 13 14 17 18 11 13 11 14 12 14 15 15 11 11 8 7 12 15 16 18 15 7 25 9 7 7 4 5 10 3
35 33 32 34 35 36 38 38 38 41 40 39 38 35 32 30 21 14 13 18 18 16 16 16 16 14 13 14 16 15 13 13 12 15 15 19 12 9 13 10 7 8 5 8 7 16 7
42 44 40 36 35 37 35 36 41 40 42 42 41 38 37 32 25 18 15 19 22 21 19 18 20 9 18 12 14 16 16 20 13 18 14 9 6 7 6 6 10 11 8 8 9 7 8
42 43 44 45 45 39 39 40 36 37 41 43 43 42 39 38 31 18 13 11 12 12 28 19 10 9 6 17 15 14 18 21 15 12 9 3 6 12 19 11 6 9 8 9 6 4 6
38 41 43 44 44 48 48 43 43 40 38 40 43 43 40 39 34 19 13 8 10 8 17 37 38 33 22 17 11 18 21 20 15 11 11 7 12 9 11 8 8 7 7 10 5 3 2
36 36 38 43 46 47 47 52 48 47 42 40 40 42 40 36 33 17 12 16 17 12 9 14 31 20 17 23 13 23 24 16 7 11 13 13 6 17 10 6 9 7 10 8 7 4 3
38 39 42 42 42 45 48 48 51 51 52 46 41 40 40 35 21 22 18 11 11 8 5 11 12 12 21 15 6 18 24 12 4 20 15 10 10 12 8 9 11 8 7 8 6 6 7
47 46 42 44 48 47 47 50 53 48 51 56 48 41 36 30 31 22 17 10 7 7 5 5 7 12 18 14 17 8 17 10 13 12 11 9 16 11 7 8 12 7 6 7 5 6 6
50 54 51 44 48 53 54 52 53 61 58 52 54 47 45 30 31 23 10 9 10 10 14 6 10 11 10 8 9 15 9 8 10 9 6 3 2 6 6 7 6 12 10 11 8 5 3
58 51 46 46 48 52 55 56 56 53 51 57 55 48 48 40 26 20 9 17 7 8 4 12 11 10 8 11 8 11 12 10 13 9 10 1 6 4 7 10 5 7 9 4 7 3 11
60 55 56 48 46 50 54 58 63 58 54 51 55 53 50 48 35 26 25 6 11 10 14 4 7 8 13 16 9 10 11 10 10 7 7 13 9 17 10 9 13 12 12 10 12 7 7
58 57 55 56 54 54 52 55 58 61 62 59 51 52 60 48 36 37 31 8 18 17 9 15 5 7 11 9 12 9 15 12 19 24 19 12 8 4 3 4 6 10 10 5 12 5 5
57 58 60 56 56 57 57 57 52 57 61 61 67 55 61 51 39 40 8 26 14 12 13 9 18 14 16 13 15 17 18 10 12 19 3 13 6 1 3 5 4 7 9 6 3 6 9
62 59 59 57 60 59 57 58 56 51 57 59 58 16 26 23 43 32 14 17 15 24 18 16 16 9 14 14 16 11 11 7 9 11 7 11 7 1 5 15 18 7 6 3 5 8 9
64 66 59 61 62 65 60 55 56 55 52 51 33 8 13 41 15 14 28 16 19 10 20 13 6 14 18 16 16 14 20 11 28 29 19 13 10 10 13 3 6 6 12 14 9 11 2
60 62 65 62 61 65 64 59 52 50 47 50 20 26 32 54 11 17 8 13 24 14 16 16 18 16 11 18 8 16 14 0 36 20 21 18 7 6 2 3 4 10 12 8 9 6 14
59 55 58 62 62 61 62 59 54 47 46 48 17 7 11 40 42 12 29 28 24 30 27 19 12 10 8 11 9 10 14 1 17 14 11 19 9 14 17 9 11 11 14 15 13 7 11
68 65 65 60 59 59 57 62 53 50 44 46 18 7 12 5 15 29 30 14 41 27 19 37 8 16 17 14 9 12 5 5 3 13 9 7 14 8 9 5 9 11 11 23 31 32 19
75 73 69 67 62 56 57 59 53 49 45 49 19 11 11 15 29 29 30 41 51 26 20 12 17 19 22 35 27 19 14 9 12 7 12 6 6 8 6 7 12 9 16 22 36 35 38
78 76 72 71 67 62 57 60 49 52 40 36 39 35 23 12 15 15 11 27 41 22 21 46 35 22 16 29 10 3 13 10 9 23 20 15 13 9 8 6 4 10 38 34 28 15 30
82 80 77 73 70 67 63 57 52 52 42 47 49 49 12 18 15 14 16 34 35 34 46 19 19 20 20 33 22 16 23 21 12 9 5 14 14 6 6 5 11 11 4 10 36 29 24
78 77 75 74 73 70 66 61 56 51 46 51 52 45 21 9 18 29 35 26 45 54 49 52 43 41 32 26 9 3 1 1 6 5 4 4 10 7 9 11 15 15 10 14 15 16 36
83 82 78 73 71 74 71 65 60 55 50 51 58 48 45 13 18 54 27 23 11 12 21 15 20 44 42 7 7 19 16 12 13 3 4 1 5 5 7 9 15 11 7 13 9 12 14
90 85 83 79 76 69 69 69 63 60 56 52 62 53 47 23 50 52 22 25 11 11 10 8 12 19 25 10 8 10 14 9 13 21 13 8 2 23 15 10 12 12 15 21 9 13 10
91 87 84 80 78 73 68 65 64 61 58 54 67 58 50 49 62 52 44 36 24 19 10 15 6 6 6 12 14 9 9 16 8 10 15 23 20 11 6 11 28 19 14 17 8 8 23
86 80 80 78 75 74 71 67 62 62 57 53 69 60 55 54 59 51 54 68 76 90 33 17 20 21 19 10 6 7 5 6 13 13 1 10 14 13 21 15 2 61 13 36 16 19 28
Wind_Direction_500mb
20 18 13 13 13 13 14 12 14 14 15 17 13 360 342 320 289 264 254 247 237 248 251 267 252 239 241 253 254 264 253 232 218 213 206 196 191 157 146 134 98 101 175 155 160 166 168
14 12 10 8 8 6 5 6 4 6 5 6 8 3 342 319 295 273 255 235 239 229 262 270 236 242 240 246 249 255 242 230 222 207 199 196 219 200 126 108 142 132 128 127 166 163 175
4 5 5 3 0 0 360 359 359 356 357 359 358 358 355 324 301 275 254 242 219 223 250 261 222 259 259 256 255 241 217 214 217 203 200 200 187 164 136 105 115 125 94 21 208 185 184
6 359 356 355 354 352 353 354 351 351 350 349 351 350 350 331 310 276 260 236 207 246 250 258 257 256 255 240 233 224 201 190 170 175 178 178 169 133 110 122 65 74 63 142 233 162 186
0 358 352 349 347 347 346 346 347 345 344 343 342 342 344 342 317 282 255 219 227 261 251 250 255 243 262 222 218 216 202 183 159 150 153 148 148 103 126 99 35 5 215 207 292 203 138
342 344 346 345 341 338 339 340 339 341 340 338 337 336 334 335 326 297 255 231 251 261 257 244 237 253 231 224 207 206 195 181 160 155 141 165 119 84 45 104 208 200 218 227 229 227 178
330 331 331 331 333 334 332 331 332 334 335 334 333 333 331 329 329 307 263 252 252 251 226 224 210 223 199 212 209 205 189 178 163 168 161 106 103 207 210 190 153 143 187 215 223 177 199
318 316 316 319 321 322 325 325 323 325 328 330 329 329 329 329 324 306 269 243 251 262 293 241 247 240 240 220 207 207 188 175 173 177 129 44 229 202 127 157 157 161 171 239 283 134 179
312 313 312 308 310 313 315 315 317 318 320 322 326 326 326 329 322 296 292 266 265 287 265 251 224 226 214 205 216 199 188 182 149 143 180 167 205 143 139 159 159 202 182 193 208 329 248
306 309 317 314 310 300 303 309 309 310 314 317 319 322 325 328 309 304 303 285 258 240 26 254 212 213 192 184 231 193 191 182 122 187 160 221 152 160 162 192 150 217 169 120 110 66 240
332 327 315 323 314 310 303 293 296 304 306 309 312 314 317 321 304 297 294 286 183 154 11 208 179 172 172 183 143 167 183 186 169 165 136 231 165 165 173 213 175 208 102 97 91 96 12
327 317 320 313 317 317 316 309 295 288 293 301 303 308 307 317 296 283 278 192 147 51 246 201 156 177 143 196 176 140 158 149 118 109 50 102 148 179 184 75 67 139 76 52 55 86 320
334 326 313 312 303 313 311 313 315 306 293 288 297 296 299 297 283 269 208 160 53 169 284 202 195 173 182 182 190 175 166 170 162 127 205 83 206 157 146 94 51 92 89 319 338 12 229
333 331 328 315 310 303 306 311 308 314 306 294 285 289 284 282 267 241 184 66 194 228 233 52 137 111 189 160 217 171 145 201 224 116 119 165 276 170 178 191 176 179 167 169 219 207 264
330 335 331 324 312 311 310 300 309 309 311 310 282 286 281 276 266 214 193 196 201 200 177 153 54 171 218 209 170 157 204 213 196 179 181 157 257 75 69 133 135 189 191 161 106 61 47
331 329 328 322 322 310 310 309 304 307 310 317 321 300 273 273 254 204 222 229 217 212 141 147 200 172 196 190 171 180 182 211 204 186 127 199 119 293 158 127 49 167 158 85 7 187 247
324 324 328 322 320 320 313 310 310 308 312 314 323 273 271 242 194 191 225 220 224 238 182 168 205 204 214 185 185 208 211 266 177 143 127 141 115 181 130 207 175 145 190 93 134 162 182
316 319 319 321 313 311 316 318 311 311 312 317 314 259 252 191 173 187 227 186 192 208 222 247 228 197 187 185 191 213 216 239 167 147 164 191 125 171 195 227 168 174 185 163 148 210 187
312 311 314 313 313 314 310 314 318 312 314 315 285 272 273 195 215 219 270 243 224 171 186 198 220 201 181 188 213 203 204 233 170 163 165 181 195 114 6 345 325 207 196 148 114 93 200
312 311 315 314 310 311 311 308 312 314 312 313 275 271 247 211 237 266 232 231 236 227 225 180 197 145 151 207 246 229 216 139 195 193 187 146 169 182 203 174 131 189 188 176 154 160 161
305 304 303 304 314 307 306 307 307 310 311 312 273 262 248 277 246 256 270 254 227 232 220 208 199 201 170 202 195 214 152 93 16 192 137 177 207 161 229 160 157 183 171 186 204 210 193
304 304 302 302 300 307 302 304 305 308 309 306 276 270 321 309 296 275 262 239 248 243 168 214 186 203 203 222 203 198 141 184 194 178 168 218 180 127 253 196 209 233 225 209 219 230 242
299 299 297 298 299 297 303 304 306 306 307 297 293 286 270 261 285 285 276 260 264 255 254 237 217 195 204 236 235 342 192 186 189 168 184 163 136 145 254 135 167 275 237 200 220 208 219
293 294 294 295 292 294 292 299 298 300 286 288 288 296 245 277 260 252 263 290 297 287 258 238 204 192 202 212 131 81 61 70 80 22 156 156 145 140 162 126 252 245 191 192 220 239 210
294 291 293 291 291 288 290 288 293 293 288 289 289 291 265 254 275 273 271 274 282 297 289 250 231 226 191 144 99 107 276 138 216 16 334 332 144 159 171 204 318 286 206 170 179 264 221
291 288 287 284 289 286 285 287 285 288 291 281 284 279 276 264 251 257 263 268 274 305 289 240 209 203 172 128 146 200 212 183 206 188 11 18 13 156 158 206 228 242 173 162 141 285 218
289 286 284 283 279 282 282 281 282 282 284 278 277 275 276 265 269 255 256 267 236 252 272 313 187 184 172 158 182 172 220 163 180 170 169 152 188 212 200 230 272 224 159 151 137 244 165
289 284 282 280 278 277 275 279 279 282 279 278 280 271 273 276 266 255 256 234 235 234 262 295 220 241 105 189 192 187 173 204 158 164 175 174 168 188 193 216 252 143 104 187 197 127 165
288 284 279 278 277 275 273 277 275 279 277 276 279 277 271 273 260 257 257 271 262 250 223 252 282 302 186 174 189 128 170 139 154 217 207 209 190 178 190 211 148 176 208 199 181 170 177
Wind_Speed_850mb
32 31 32 33 34 34 34 34 33 34 34 34 28 19 14 10 11 12 12 10 9 9 6 7 10 12 11 11 15 11 10 10 12 16 16 16 12 8 9 7 5 6 9 6 9 12 10
34 35 35 34 35 35 36 36 35 33 33 34 33 27 18 13 13 13 13 12 10 9 7 8 8 10 12 9 11 10 10 8 10 16 19 18 10 11 15 6 4 7 9 9 9 10 10
33 34 34 35 35 37 37 37 37 38 36 33 34 34 25 13 13 13 13 15 15 11 10 7 10 8 16 20 12 9 10 7 8 15 17 18 14 11 16 9 13 19 7 3 6 7 5
31 32 35 36 35 34 36 38 40 38 38 37 33 33 33 19 14 13 14 17 18 11 13 11 14 12 14 15 15 11 11 8 7 12 15 16 18 15 7 25 9 7 7 4 5 10 3
35 33 32 34 35 36 38 38 38 41 40 39 38 35 32 30 21 14 13 18 18 16 16 16 16 14 13 14 16 15 13 13 12 15 15 19 12 9 13 10 7 8 5 8 7 16 7
42 44 40 36 35 37 35 36 41 40 42 42 41 38 37 32 25 18 15 19 22 21 19 18 20 9 18 12 14 16 16 20 13 18 14 9 6 7 6 6 10 11 8 8 9 7 8
42 43 44 45 45 39 39 40 36 37 41 43 43 42 39 38 31 18 13 11 12 12 28 19 10 9 6 17 15 14 18 21 15 12 9 3 6 12 19 11 6 9 8 9 6 4 6
38 41 43 44 44 48 48 43 43 40 38 40 43 43 40 39 34 19 13 8 10 8 17 37 38 33 22 17 11 18 21 20 15 11 11 7 12 9 11 8 8 7 7 10 5 3 2
36 36 38 43 46 47 47 52 48 47 42 40 40 42 40 36 33 17 12 16 17 12 9 14 31 20 17 23 13 23 24 16 7 11 13 13 6 17 10 6 9 7 10 8 7 4 3
38 39 42 42 42 45 48 48 51 51 52 46 41 40 40 35 21 22 18 11 11 8 5 11 12 12 21 15 6 18 24 12 4 20 15 10 10 12 8 9 11 8 7 8 6 6 7
47 46 42 44 48 47 47 50 53 48 51 56 48 41 36 30 31 22 17 10 7 7 5 5 7 12 18 14 17 8 17 10 13 12 11 9 16 11 7 8 12 7 6 7 5 6 6
50 54 51 44 48 53 54 52 53 61 58 52 54 47 45 30 31 23 10 9 10 10 14 6 10 11 10 8 9 15 9 8 10 9 6 3 2 6 6 7 6 12 10 11 8 5 3
58 51 46 46 48 52 55 56 56 53 51 57 55 48 48 40 26 20 9 17 7 8 4 12 11 10 8 11 8 11 12 10 13 9 10 1 6 4 7 10 5 7 9 4 7 3 11
60 55 56 48 46 50 54 58 63 58 54 51 55 53 50 48 35 26 25 6 11 10 14 4 7 8 13 16 9 10 11 10 10 7 7 13 9 17 10 9 13 12 12 10 12 7 7
58 57 55 56 54 54 52 55 58 61 62 59 51 52 60 48 36 37 31 8 18 17 9 15 5 7 11 9 12 9 15 12 19 24 19 12 8 4 3 4 6 10 10 5 12 5 5
57 58 60 56 56 57 57 57 52 57 61 61 67 55 61 51 39 40 8 26 14 12 13 9 18 14 16 13 15 17 18 10 12 19 3 13 6 1 3 5 4 7 9 6 3 6 9
62 59 59 57 60 59 57 58 56 51 57 59 58 16 26 23 43 32 14 17 15 24 18 16 16 9 14 14 16 11 11 7 9 11 7 11 7 1 5 15 18 7 6 3 5 8 9
64 66 59 61 62 65 60 55 56 55 52 51 33 8 13 41 15 14 28 16 19 10 20 13 6 14 18 16 16 14 20 11 28 29 19 13 10 10 13 3 6 6 12 14 9 11 2
60 62 65 62 61 65 64 59 52 50 47 50 20 26 32 54 11 17 8 13 24 14 16 16 18 16 11 18 8 16 14 0 36 20 21 18 7 6 2 3 4 10 12 8 9 6 14
59 55 58 62 62 61 62 59 54 47 46 48 17 7 11 40 42 12 29 28 24 30 27 19 12 10 8 11 9 10 14 1 17 14 11 19 9 14 17 9 11 11 14 15 13 7 11
68 65 65 60 59 59 57 62 53 50 44 46 18 7 12 5 15 29 30 14 41 27 19 37 8 16 17 14 9 12 5 5 3 13 9 7 14 8 9 5 9 11 11 23 31 32 19
75 73 69 67 62 56 57 59 53 49 45 49 19 11 11 15 29 29 30 41 51 26 20 12 17 19 22 35 27 19 14 9 12 7 12 6 6 8 6 7 12 9 16 22 36 35 38
78 76 72 71 67 62 57 60 49 52 40 36 39 35 23 12 15 15 11 27 41 22 21 46 35 22 16 29 10 3 13 10 9 23 20 15 13 9 8 6 4 10 38 34 28 15 30
82 80 77 73 70 67 63 57 52 52 42 47 49 49 12 18 15 14 16 34 35 34 46 19 19 20 20 33 22 16 23 21 12 9 5 14 14 6 6 5 11 11 4 10 36 29 24
78 77 75 74 73 70 66 61 56 51 46 51 52 45 21 9 18 29 35 26 45 54 49 52 43 41 32 26 9 3 1 1 6 5 4 4 10 7 9 11 15 15 10 14 15 16 36
83 82 78 73 71 74 71 65 60 55 50 51 58 48 45 13 18 54 27 23 11 12 21 15 20 44 42 7 7 19 16 12 13 3 4 1 5 5 7 9 15 11 7 13 9 12 14
90 85 83 79 76 69 69 69 63 60 56 52 62 53 47 23 50 52 22 25 11 11 10 8 12 19 25 10 8 10 14 9 13 21 13 8 2 23 15 10 12 12 15 21 9 13 10
91 87 84 80 78 73 68 65 64 61 58 54 67 58 50 49 62 52 44 36 24 19 10 15 6 6 6 12 14 9 9 16 8 10 15 23 20 11 6 11 28 19 14 17 8 8 23
86 80 80 78 75 74 71 67 62 62 57 53 69 60 55 54 59 51 54 68 76 90 33 17 20 21 19 10 6 7 5 6 13 13 1 10 14 13 21 15 2 61 13 36 16 19 28
Wind_Direction_850mb
20 18 13 13 13 13 14 12 14 14 15 17 13 360 342 320 289 264 254 247 237 248 251 267 252 239 241 253 254 264 253 232 218 213 206 196 191 157 146 134 98 101 175 155 160 166 168
14 12 10 8 8 6 5 6 4 6 5 6 8 3 342 319 295 273 255 235 239 229 262 270 236 242 240 246 249 255 242 230 222 207 199 196 219 200 126 108 142 132 128 127 166 163 175
4 5 5 3 0 0 360 359 359 356 357 359 358 358 355 324 301 275 254 242 219 223 250 261 222 259 259 256 255 241 217 214 217 203 200 200 187 164 136 105 115 125 94 21 208 185 184
6 359 356 355 354 352 353 354 351 351 350 349 351 350 350 331 310 276 260 236 207 246 250 258 257 256 255 240 233 224 201 190 170 175 178 178 169 133 110 122 65 74 63 142 233 162 186
0 358 352 349 347 347 346 346 347 345 344 343 342 342 344 342 317 282 255 219 227 261 251 250 255 243 262 222 218 216 202 183 159 150 153 148 148 103 126 99 35 5 215 207 292 203 138
342 344 346 345 341 338 339 340 339 341 340 338 337 336 334 335 326 297 255 231 251 261 257 244 237 253 231 224 207 206 195 181 160 155 141 165 119 84 45 104 208 200 218 227 229 227 178
330 331 331 331 333 334 332 331 332 334 335 334 333 333 331 329 329 307 263 252 252 251 226 224 210 223 199 212 209 205 189 178 163 168 161 106 103 207 210 190 153 143 187 215 223 177 199
318 316 316 319 321 322 325 325 323 325 328 330 329 329 329 329 324 306 269 243 251 262 293 241 247 240 240 220 207 207 188 175 173 177 129 44 229 202 127 157 157 161 171 239 283 134 179
312 313 312 308 310 313 315 315 317 318 320 322 326 326 326 329 322 296 292 266 265 287 265 251 224 226 214 205 216 199 188 182 149 143 180 167 205 143 139 159 159 202 182 193 208 329 248
306 309 317 314 310 300 303 309 309 310 314 317 319 322 325 328 309 304 303 285 258 240 26 254 212 213 192 184 231 193 191 182 122 187 160 221 152 160 162 192 150 217 169 120 110 66 240
332 327 315 323 314 310 303 293 296 304 306 309 312 314 317 321 304 297 294 286 183 154 11 208 179 172 172 183 143 167 183 186 169 165 136 231 165 165 173 213 175 208 102 97 91 96 12
327 317 320 313 317 317 316 309 295 288 293 301 303 308 307 317 296 283 278 192 147 51 246 201 156 177 143 196 176 140 158 149 118 109 50 102 148 179 184 75 67 139 76 52 55 86 320
334 326 313 312 303 313 311 313 315 306 293 288 297 296 299 297 283 269 208 160 53 169 284 202 195 173 182 182 190 175 166 170 162 127 205 83 206 157 146 94 51 92 89 319 338 12 229
333 331 328 315 310 303 306 311 308 314 306 294 285 289 284 282 267 241 184 66 194 228 233 52 137 111 189 160 217 171 145 201 224 116 119 165 276 170 178 191 176 179 167 169 219 207 264
330 335 331 324 312 311 310 300 309 309 311 310 282 286 281 276 266 214 193 196 201 200 177 153 54 171 218 209 170 157 204 213 196 179 181 157 257 75 69 133 135 189 191 161 106 61 47
331 329 328 322 322 310 310 309 304 307 310 317 321 300 273 273 254 204 222 229 217 212 141 147 200 172 196 190 171 180 182 211 204 186 127 199 119 293 158 127 49 167 158 85 7 187 247
324 324 328 322 320 320 313 310 310 308 312 314 323 273 271 242 194 191 225 220 224 238 182 168 205 204 214 185 185 208 211 266 177 143 127 141 115 181 130 207 175 145 190 93 134 162 182
316 319 319 321 313 311 316 318 311 311 312 317 314 259 252 191 173 187 227 186 192 208 222 247 228 197 187 185 191 213 216 239 167 147 164 191 125 171 195 227 168 174 185 163 148 210 187
312 311 314 313 313 314 310 314 318 312 314 315 285 272 273 195 215 219 270 243 224 171 186 198 220 201 181 188 213 203 204 233 170 163 165 181 195 114 6 345 325 207 196 148 114 93 200
312 311 315 314 310 311 311 308 312 314 312 313 275 271 247 211 237 266 232 231 236 227 225 180 197 145 151 207 246 229 216 139 195 193 187 146 169 182 203 174 131 189 188 176 154 160 161
305 304 303 304 314 307 306 307 307 310 311 312 273 262 248 277 246 256 270 254 227 232 220 208 199 201 170 202 195 214 152 93 16 192 137 177 207 161 229 160 157 183 171 186 204 210 193
304 304 302 302 300 307 302 304 305 308 309 306 276 270 321 309 296 275 262 239 248 243 168 214 186 203 203 222 203 198 141 184 194 178 168 218 180 127 253 196 209 233 225 209 219 230 242
299 299 297 298 299 297 303 304 306 306 307 297 293 286 270 261 285 285 276 260 264 255 254 237 217 195 204 236 235 342 192 186 189 168 184 163 136 145 254 135 167 275 237 200 220 208 219
293 294 294 295 292 294 292 299 298 300 286 288 288 296 245 277 260 252 263 290 297 287 258 238 204 192 202 212 131 81 61 70 80 22 156 156 145 140 162 126 252 245 191 192 220 239 210
294 291 293 291 291 288 290 288 293 293 288 289 289 291 265 254 275 273 271 274 282 297 289 250 231 226 191 144 99 107 276 138 216 16 334 332 144 159 171 204 318 286 206 170 179 264 221
291 288 287 284 289 286 285 287 285 288 291 281 284 279 276 264 251 257 263 268 274 305 289 240 209 203 172 128 146 200 212 183 206 188 11 18 13 156 158 206 228 242 173 162 141 285 218
289 286 284 283 279 282 282 281 282 282 284 278 277 275 276 265 269 255 256 267 236 252 272 313 187 184 172 158 182 172 220 163 180 170 169 152 188 212 200 230 272 224 159 151 137 244 165
289 284 282 280 278 277 275 279 279 282 279 278 280 271 273 276 266 255 256 234 235 234 262 295 220 241 105 189 192 187 173 204 158 164 175 174 168 188 193 216 252 143 104 187 197 127 165
288 284 279 278 277 275 273 277 275 279 277 276 279 277 271 273 260 257 257 271 262 250 223 252 282 302 186 174 189 128 170 139 154 217 207 209 190 178 190 211 148 176 208 199 181 170 177